Hourly Data Report for June 30, 2003

SHERBROOKE A
QUEBEC

45°26'00.000" N
71°41'00.000" W
241.40 m
7028124
71610
YSC

Download Data

Hourly Data (June 2003)
Hourly Data Report for June 30, 2003
TIME
LST
Temp Definition
°C
Dew Point Definition
°C
Rel Hum Definition
%
Precip. Amount Definition
mm

Wind Dir Definition
10's deg

Wind Spd Definition
km/h
Visibility Definition
km
Stn Press Definition
kPa
Hmdx Definition


Wind Chill Definition


Weather Definition


00:00 17.0 16.3 96     0 4.0 98.78      
01:00 17.3 16.6 96   35 4 5.6 98.77      
02:00 17.8 16.9 94   19 9 3.2 98.74     Moderate Rain
03:00 17.0 16.0 94   28 11 9.7 98.83     Rain
04:00 14.9 14.0 94   14 7 15.0 98.76     Rain
05:00 14.4 13.7 96   36 4 12.9 98.78      
06:00 17.2 15.5 90     0 15.0 98.77      
07:00 19.0 16.4 85   24 7 24.1 98.75     Clear
08:00 20.1 16.2 78   22 9 24.1 98.76 25   Mostly Cloudy
09:00 21.4 16.8 75   23 17 24.1 98.71 27   Mainly Clear
10:00 21.2 15.7 71   25 19 19.3 98.68 26   Thunderstorms,Rain Showers
11:00 21.2 16.3 74   19 13 24.1 98.68 26   Mostly Cloudy
12:00 23.3 14.8 59   25 20 24.1 98.65 27   Mainly Clear
13:00 22.9 15.2 62   27 30 24.1 98.69 27   Mainly Clear
14:00 22.3 14.2 60   27 24 24.1 98.69 26   Mainly Clear
15:00 23.6 13.3 52   27 24 24.1 98.70 27   Mainly Clear
16:00 19.3 12.9 66   27 19 24.1 98.74     Mostly Cloudy
17:00 22.0 12.2 54   26 24 15.0 98.71      
18:00 21.2 12.3 57   26 17 15.0 98.68      
19:00 19.3 11.7 61   26 9 15.0 98.75      
20:00 15.0 11.7 81   25 6 15.0 98.80      
21:00 12.7 10.2 85   23 4 15.0 98.86      
22:00 11.4 10.2 92   22 4 15.0 98.88      
23:00 10.7 9.8 94   19 4 15.0 98.89      

Notes on Data Quality.

Legend

  • E = Estimated
  • M = Missing
  • NA = Not Available*
  • [empty] = Indicates an unobserved value
Date modified: